Location: Mountain View
(42.7042°N, 73.6523°W)
Time: 02:22:50
(UTC+00:00)

Tiangong - Pass Details

Date: 22 December 2025
Orbit: 378 x 393 km, 41.5° (Epoch: 19 January)

Event Time Altitude Azimuth Distance (km) Brightness Sun altitude
Rises 23:14:37 0° 226° (SW) 2,250 2.8 -19.4°
Reaches altitude 10° 23:16:55 10° 211° (SSW) 1,395 1.3 -19.8°
Enters shadow 23:18:59 22° 172° (S) 878 -0.3 -20.1°
